Simultaneous Nadir Overpasses (SNOs) Predictions

Prediction of SNOs between AQUA and METOP-B Satellite Orbit:

Table of predicted SNOs for the next 14.0 days since TLE Epoch: 3/8/2025
Index Date (AQUA) Time (AQUA) Lat,Lon (AQUA) SZA (AQUA ) Date (METOP-B) Time (METOP-B) Lat,Lon (METOP-B) SZA (METOP-B ) Distance(km) Time Diff (sec)
1 03/10/2025 02:05:35 -77.06, -32.67 98.93 03/10/2025 02:05:10 -77.05, -32.68 98.94 1.05 25
2 03/10/2025 02:54:55 77.10, 134.85 81.10 03/10/2025 02:55:49 77.10, 134.88 81.10 1.16 54
3 03/12/2025 14:54:46 -77.06, 135.09 99.93 03/12/2025 14:54:13 -77.06, 135.08 99.93 0.10 33
4 03/12/2025 15:44:06 77.10, -57.41 80.11 03/12/2025 15:44:52 77.12, -57.36 80.12 1.88 46
5 03/15/2025 03:43:56 -77.09, -57.23 100.91 03/15/2025 03:43:16 -77.07, -57.19 100.92 2.27 40
6 03/15/2025 04:33:16 77.13, 110.26 79.13 03/15/2025 04:33:55 77.12, 110.36 79.12 2.80 39
7 03/17/2025 16:33:04 -77.08, 110.55 101.91 03/17/2025 16:32:19 -77.07, 110.51 101.93 2.29 45
8 03/17/2025 17:22:24 77.13, -81.97 78.13 03/17/2025 17:22:58 77.12, -81.94 78.11 1.77 34
9 03/20/2025 05:22:10 -77.10, -81.74 102.90 03/20/2025 05:21:20 -77.10, -81.64 102.90 2.37 50
10 03/20/2025 06:11:30 77.16, 85.73 77.15 03/20/2025 06:11:59 77.15, 85.90 77.14 4.25 29



Historial Predications of SNOs between AQUA and METOP-B
